Regional Weather Roundup
Issued by NWS

Home | Current Version | Previous Version | Graphics & Text | Print | Product List | Glossary Off
Versions: 1 2 3 4 5 6 7 8 9 10 11 12 13 14 15 16 17 18 19 20 21 22 23 24 25 26 27 28 29 30 31 32 33 34 35 36 37 38 39 40 41 42 43 44 45 46 47 48 49 50

000
ASUS43 KDMX 190807
RWRIA

WEATHER ROUNDUP FOR IOWA
NATIONAL WEATHER SERVICE DES MOINES IA
200 AM CST FRI DEC 19 2014

NOTE: "FAIR" INDICATES FEW OR NO CLOUDS BELOW 12,000 FEET WITH NO
SIGNIFICANT WEATHER AND/OR OBSTRUCTIONS TO VISIBILITY.

* - THESE STATIONS ARE NOT NWS STATIONS...THUS NOT UNDER NWS
QUALITY CONTROL.  THEY ALSO DO NOT REPORT WEATHER SUCH
AS PRECIPITATION OR FOG.

IAZ001>003-012>014-020>022-031>034-043>046-190900-
   NORTHWEST IOWA

CITY           SKY/WX    TMP DP  RH WIND       PRES   REMARKS
CARROLL *      LGT SNOW  28  28 100 SE3       30.23F
CHEROKEE *     CLOUDY    28  28 100 S6        30.22S WCI  22
DENISON *      CLOUDY    30  30 100 SW5       30.20F WCI  25
LE MARS *      CLOUDY    30  28  93 S7        30.21S WCI  23
ORANGE CITY *  CLOUDY    28  27  93 S6        30.19F FOG     WCI  22
SHELDON *      CLOUDY    28  28 100 S9        30.18F FOG     WCI  20
SIOUX CITY     CLOUDY    31  27  85 S6        30.21F WCI  25
SPENCER        CLOUDY    28  24  85 S8        30.21S WCI  20
STORM LAKE *   CLOUDY    28  28 100 S6        30.21F FOG     WCI  22
$$

IAZ055>058-069>071-079>083-090>094-190900-
   SOUTHWEST IOWA

CITY           SKY/WX    TMP DP  RH WIND       PRES   REMARKS
ATLANTIC *     CLOUDY    30  28  93 S5        30.23F WCI  25
AUDUBON *      MOCLDY    28  25  86 S6        30.24S WCI  22
CLARINDA *     CLOUDY    30  28  93 CALM      30.27S
COUNCIL BLFS * CLOUDY    30  30 100 S7        30.21F FOG     WCI  23
CRESTON *      CLOUDY    28  28 100 S5        30.24F FOG     WCI  23
HARLAN  *      CLOUDY    30  30 100 S7        30.26S WCI  23
LAMONI         CLOUDY    28  26  92 CALM      30.25F
RED OAK *      CLOUDY    30  28  93 S5        30.24F WCI  25
SHENANDOAH *   CLOUDY    30  30 100 S6        30.26S WCI  24
$$

IAZ047>049-059>061-072>074-084-190900-
   CENTRAL IOWA

CITY           SKY/WX    TMP DP  RH WIND       PRES   REMARKS
AMES           CLOUDY    26  22  84 SE5       30.27F WCI  20
ANKENY *       CLOUDY    27  25  93 CALM      30.28S
CHARITON *     CLOUDY    28  27  93 CALM      30.26S
DES MOINES     FRZ DRZL  28  24  85 SE3       30.28S
GRINNELL*      CLOUDY    27  23  86 CALM      30.28S
KNOXVILLE *    CLOUDY    27  23  86 CALM      30.27S
MARSHALLTOWN   CLOUDY    24  20  84 CALM      30.27S
PELLA *        MOCLDY    27  25  93 CALM      30.30S
PERRY *        CLOUDY    28  28 100 SE7       30.26S FOG     WCI  21
$$

IAZ004>006-015-016-023>025-035-036-190900-
   NORTH CENTRAL IOWA

CITY           SKY/WX    TMP DP  RH WIND       PRES   REMARKS
ALGONA *       CLOUDY    27  23  86 S7        30.24S WCI  19
CLARION *      CLOUDY    25  25 100 S7        30.25S WCI  17
ESTHERVILLE    CLOUDY    25  23  92 S8        30.21S WCI  16
FORT DODGE *   CLOUDY    27  21  80 S5        30.25S WCI  21
MASON CITY     CLOUDY    23  19  85 S6        30.27R WCI  16
FOREST CITY *  CLOUDY    27  21  80 S5        30.24S WCI  21
IOWA FALLS *   CLOUDY    25  21  86 S6        30.27S WCI  18
$$

IAZ007>011-017>019-026>030-037>042-050>054-066-190900-
   NORTHEAST IOWA

CITY           SKY/WX    TMP DP  RH WIND       PRES   REMARKS
CEDAR RAPIDS   CLOUDY    24  20  84 NW3       30.29R
CHARLES CITY * CLOUDY    23  19  86 CALM      30.27S
CLINTON *      CLOUDY    16  10  79 CALM      30.33R
DECORAH *      CLOUDY    23  19  86 CALM      30.26R
DUBUQUE        CLOUDY    23  19  85 CALM      30.28R
MONTICELLO *   CLEAR     14  14 100 CALM      30.30R
OELWEIN *      CLOUDY    23  19  86 CALM      30.28R
WATERLOO       CLOUDY    24  19  81 CALM      30.29R
$$

IAZ064-065-067-068-078-190900-
   EAST CENTRAL IOWA

CITY           SKY/WX    TMP DP  RH WIND       PRES   REMARKS
DAVENPORT      CLEAR     17  13  84 CALM      30.30F
IOWA CITY      CLOUDY    26  19  74 CALM      30.32R
MT. PLEASANT * CLOUDY    27  25  93 CALM      30.30S
MUSCATINE *    CLOUDY    28  19  69 CALM      30.32R
QUAD CITIES    PTCLDY    18  14  84 E3        30.31S
$$

IAZ062-063-075>077-085>089-095>099-190900-
   SOUTHEAST IOWA

CITY           SKY/WX    TMP DP  RH WIND       PRES   REMARKS
BURLINGTON     CLOUDY    28  22  78 CALM      30.29S
FAIRFIELD *    CLOUDY    27  23  86 CALM      30.29S
FORT MADISON * CLOUDY    28  27  93 CALM      30.30S
KEOKUK *       CLOUDY    28  25  86 CALM      30.29S
OSKALOOSA *    CLOUDY    27  23  86 CALM      30.29S
CENTERVILLE *  CLOUDY    27  27 100 CALM      30.28S
OTTUMWA        CLOUDY    27  22  81 CALM      30.28F
WASHINGTON *   CLOUDY    27  25  93 CALM      30.30R
$$

ABBREVIATIONS USED IN REMARKS
   TC - TEMPERATURES IN CELSIUS
  WCI - WIND CHILL INDEX
   HX - HEAT INDEX
  VSB - VISIBILITY
$$



USA.gov is the U.S. government's official web portal to all federal, state and local government web resources and services.